Change the Weather History Date:

Wednesday, April 30, 2014

  Actual Average Record
Temperature  
Mean Temperature 72 °F -  
Max Temperature 91 °F 78 °F 95 °F (1945)
Min Temperature 53 °F 51 °F 34 °F (1970)
Cooling Degree Days 7    
Growing Degree Days 22 (Base 50)    
Moisture  
Dew Point 43 °F    
Average Humidity 41    
Maximum Humidity 72    
Minimum Humidity 13    
Precipitation  
Precipitation 0.00 in - - ()
Sea Level Pressure  
Sea Level Pressure 30.05 in    
Wind  
Wind Speed 4 mph (SSE)    
Max Wind Speed 10 mph    
Max Gust Speed -    
Visibility 10 miles    
Events      
Averages and records for this station are not official NWS values.
T = Trace of Precipitation, MM = Missing Value Source: NWS Daily Summary

Daily Weather History Graph

Daily Weather History Graph

Search for Another Location

Airport or City:

Trip Planner

Search our weather history database for the weather conditions in past years. The results will help you decide how hot, cold, wet, or windy it might be!

Date:

Astronomy

Apr. 30, 2014 Rise Set
Actual Time 6:05 AM PDT 7:44 PM PDT
Civil Twilight 5:37 AM PDT 8:12 PM PDT
Nautical Twilight 5:04 AM PDT 8:45 PM PDT
Astronomical Twilight 4:29 AM PDT 9:20 PM PDT
Moon 7:11 AM PDT (4/30) 9:26 PM PDT (4/30)
Length of Visible Light 14h 34m
Length of Day
13h 39m
Waxing Crescent, 3% of the Moon is Illuminated
Apr 30
Waxing Crescent
May 6
First Quarter
May 14
Full
May 21
Last Quarter
May 28
New

Hourly Weather History & Observations

Time (PDT) Temp. Dew Point Humidity Pressure Visibility Wind Dir Wind Speed Gust Speed Precip Events Conditions
12:15 AM 62.6 °F 48.2 °F 59% 30.08 in 10.0 mi NW 3.5 mph - N/A   Clear
12:35 AM 62.6 °F 48.2 °F 59% 30.07 in 10.0 mi NNW 3.5 mph - N/A   Clear
12:55 AM 60.8 °F 48.2 °F 63% 30.08 in 10.0 mi Calm Calm - N/A   Clear
1:15 AM 59.0 °F 46.4 °F 63% 30.08 in 10.0 mi East 3.5 mph - N/A   Clear
1:35 AM 59.0 °F 48.2 °F 67% 30.08 in 10.0 mi East 4.6 mph - N/A   Clear
1:55 AM 59.0 °F 48.2 °F 67% 30.08 in 10.0 mi East 3.5 mph - N/A   Clear
2:15 AM 57.2 °F 46.4 °F 67% 30.07 in 10.0 mi ESE 3.5 mph - N/A   Clear
2:35 AM 57.2 °F 46.4 °F 67% 30.07 in 10.0 mi Calm Calm - N/A   Clear
2:55 AM 57.2 °F 46.4 °F 67% 30.07 in 10.0 mi Calm Calm - N/A   Clear
3:15 AM 57.2 °F 46.4 °F 67% 30.07 in 10.0 mi Calm Calm - N/A   Clear
3:35 AM 57.2 °F 46.4 °F 67% 30.07 in 10.0 mi Calm Calm - N/A   Clear
3:55 AM 55.4 °F 44.6 °F 67% 30.08 in 10.0 mi Calm Calm - N/A   Clear
4:15 AM 55.4 °F 44.6 °F 67% 30.07 in 10.0 mi Calm Calm - N/A   Clear
4:35 AM 55.4 °F 46.4 °F 72% 30.07 in 10.0 mi SE 3.5 mph - N/A   Clear
4:55 AM 55.4 °F 44.6 °F 67% 30.08 in 10.0 mi SE 4.6 mph - N/A   Clear
5:15 AM 57.2 °F 46.4 °F 67% 30.08 in 10.0 mi ESE 5.8 mph - N/A   Clear
5:35 AM 57.2 °F 44.6 °F 63% 30.08 in 10.0 mi SE 3.5 mph - N/A   Clear
5:55 AM 55.4 °F 44.6 °F 67% 30.09 in 10.0 mi Calm Calm - N/A   Clear
6:15 AM 53.6 °F 44.6 °F 72% 30.09 in 10.0 mi ESE 4.6 mph - N/A   Clear
6:35 AM 53.6 °F 44.6 °F 72% 30.10 in 10.0 mi ESE 3.5 mph - N/A   Clear
6:55 AM 55.4 °F 46.4 °F 72% 30.10 in 10.0 mi East 5.8 mph - N/A   Clear
7:15 AM 59.0 °F 46.4 °F 63% 30.11 in 10.0 mi ESE 4.6 mph - N/A   Clear
7:35 AM 60.8 °F 46.4 °F 59% 30.11 in 10.0 mi SE 6.9 mph - N/A   Clear
8:15 AM 64.4 °F 48.2 °F 56% 30.12 in 10.0 mi SE 8.1 mph - N/A   Clear
8:35 AM 64.4 °F 48.2 °F 56% 30.12 in 10.0 mi SE 6.9 mph - N/A   Clear
8:55 AM 68.0 °F 50.0 °F 52% 30.11 in 10.0 mi SSE 6.9 mph - N/A   Clear
9:15 AM 69.8 °F 50.0 °F 49% 30.11 in 10.0 mi SSE 4.6 mph - N/A   Clear
9:35 AM 71.6 °F 50.0 °F 46% 30.12 in 8.0 mi South 4.6 mph - N/A   Clear
9:55 AM 73.4 °F 51.8 °F 47% 30.12 in 10.0 mi South 6.9 mph - N/A   Clear
10:15 AM 75.2 °F 51.8 °F 44% 30.12 in 10.0 mi South 6.9 mph - N/A   Clear
10:35 AM 77.0 °F 51.8 °F 41% 30.12 in 10.0 mi SSW 8.1 mph - N/A   Clear
10:55 AM 78.8 °F 50.0 °F 36% 30.12 in 10.0 mi SW 6.9 mph - N/A   Clear
11:15 AM 80.6 °F 46.4 °F 30% 30.12 in 10.0 mi WSW 10.4 mph - N/A   Clear
11:35 AM 80.6 °F 44.6 °F 28% 30.12 in 10.0 mi SSW 8.1 mph - N/A   Clear
11:55 AM 82.4 °F 39.2 °F 21% 30.11 in 10.0 mi WSW 8.1 mph - N/A   Clear
12:15 PM 82.4 °F 35.6 °F 19% 30.10 in 10.0 mi SSW 6.9 mph - N/A   Clear
12:35 PM 82.4 °F 37.4 °F 20% 30.09 in 10.0 mi SW 8.1 mph - N/A   Clear
12:55 PM 84.2 °F 35.6 °F 18% 30.07 in 10.0 mi SSW 6.9 mph - N/A   Clear
1:15 PM 86.0 °F 35.6 °F 17% 30.07 in 10.0 mi NW 3.5 mph - N/A   Clear
1:35 PM 87.8 °F 33.8 °F 15% 30.06 in 10.0 mi WSW 4.6 mph - N/A   Clear
1:55 PM 87.8 °F 35.6 °F 16% 30.06 in 10.0 mi SW 4.6 mph - N/A   Clear
2:15 PM 87.8 °F 35.6 °F 16% 30.04 in 10.0 mi West 5.8 mph - N/A   Clear
2:35 PM 87.8 °F 35.6 °F 16% 30.03 in 10.0 mi Calm Calm - N/A   Clear
2:55 PM 89.6 °F 33.8 °F 14% 30.03 in 10.0 mi NW 5.8 mph - N/A   Clear
3:15 PM 89.6 °F 35.6 °F 15% 30.03 in 10.0 mi WNW 5.8 mph - N/A   Clear
3:35 PM 89.6 °F 35.6 °F 15% 30.01 in 10.0 mi West 5.8 mph - N/A   Clear
3:55 PM 91.4 °F 35.6 °F 14% 30.01 in 10.0 mi North 9.2 mph - N/A   Clear
4:15 PM 91.4 °F 35.6 °F 14% 30.01 in 10.0 mi WNW 8.1 mph - N/A   Clear
4:35 PM 89.6 °F 35.6 °F 15% 29.99 in 10.0 mi North 6.9 mph - N/A   Clear
4:55 PM 91.4 °F 33.8 °F 13% 29.99 in 10.0 mi NNW 10.4 mph - N/A   Clear
5:15 PM 89.6 °F 33.8 °F 14% 29.99 in 10.0 mi NW 8.1 mph - N/A   Clear
5:35 PM 89.6 °F 33.8 °F 14% 29.98 in 10.0 mi NNW 8.1 mph - N/A   Clear
6:15 PM 89.6 °F 33.8 °F 14% 29.98 in 10.0 mi Calm Calm - N/A   Clear
6:35 PM 89.6 °F 35.6 °F 15% 29.98 in 10.0 mi NNW 4.6 mph - N/A   Clear
6:55 PM 87.8 °F 35.6 °F 16% 29.97 in 10.0 mi NNE 4.6 mph - N/A   Clear
7:15 PM 86.0 °F 35.6 °F 17% 29.97 in 10.0 mi NE 3.5 mph - N/A   Clear
7:35 PM 84.2 °F 35.6 °F 18% 29.98 in 10.0 mi Calm Calm - N/A   Clear
7:55 PM 80.6 °F 39.2 °F 23% 29.98 in 10.0 mi Calm Calm - N/A   Clear
8:15 PM 75.2 °F 46.4 °F 36% 29.98 in 10.0 mi Calm Calm - N/A   Clear
8:35 PM 75.2 °F 46.4 °F 36% 29.99 in 10.0 mi Calm Calm - N/A   Clear
8:55 PM 75.2 °F 44.6 °F 34% 29.99 in 10.0 mi Calm Calm - N/A   Clear
9:15 PM 73.4 °F 46.4 °F 38% 30.01 in 10.0 mi East 3.5 mph - N/A   Clear
9:35 PM 71.6 °F 48.2 °F 43% 30.01 in 10.0 mi Calm Calm - N/A   Clear
9:55 PM 73.4 °F 46.4 °F 38% 30.01 in 10.0 mi Calm Calm - N/A   Clear
10:15 PM 71.6 °F 46.4 °F 41% 30.02 in 10.0 mi Calm Calm - N/A   Clear
10:35 PM 69.8 °F 48.2 °F 46% 30.02 in 10.0 mi Calm Calm - N/A   Clear
10:55 PM 69.8 °F 46.4 °F 43% 30.02 in 10.0 mi ENE 4.6 mph - N/A   Clear
11:15 PM 68.0 °F 48.2 °F 49% 30.02 in 10.0 mi East 5.8 mph - N/A   Clear
11:35 PM 69.8 °F 50.0 °F 49% 30.02 in 10.0 mi ENE 3.5 mph - N/A   Clear
11:55 PM 69.8 °F 48.2 °F 46% 30.02 in 10.0 mi East 3.5 mph - N/A   Clear